Regional Weather Roundup
Issued by NWS

Home | Current Version | Previous Version | Text Only | Print | Product List | Glossary Off
Versions: 1 2 3 4 5 6 7 8 9 10 11 12 13 14 15 16 17 18 19 20 21 22 23 24 25 26 27 28 29 30 31 32 33 34 35 36 37 38 39 40 41 42 43 44 45 46 47 48 49 50

000
ASUS43 KIND 090809
RWRIN

WEATHER ROUNDUP FOR INDIANA
NATIONAL WEATHER SERVICE INDIANAPOLIS IN
300 AM EST TUE FEB 09 2016

NOTE: "FAIR" INDICATES FEW OR NO CLOUDS BELOW 12,000 FEET WITH NO
SIGNIFICANT WEATHER AND/OR OBSTRUCTIONS TO VISIBILITY.

* - STATION DOES NOT REPORT WEATHER SUCH AS PRECIPITATION OR FOG.

+ - STATION NOT QUALITY CONTROLLED BY THE NATIONAL WEATHER SERVICE.
    USE DATA WITH CAUTION...ESPECIALLY DEWPOINT AND RELATIVE
    HUMIDITY OBSERVATIONS.

INZ001>003-010>013-019-020-090900-
NORTHWEST INDIANA

CITY           SKY/WX    TMP DP  RH WIND       PRES   REMARKS
GARY /AIRPORT/ FLURRIES  24  18  78 W12       29.73S WCI  12
KNOX *+        CLOUDY    25  23  93 W8        29.69S WCI  16
LA PORTE +     FLURRIES  26  25  94 NW9G20    29.68S WCI  17
MICHIGAN CITY+ LGT SNOW  25  23  93 W10       29.70S WCI  15
MONTICELLO +   CLOUDY    23  17  75 W10       29.71S WCI  13
RENSSELAER +   CLOUDY    25  18  74 W14G20    29.72S WCI  13
VALPARAISO     LGT SNOW  22  18  85 W14       29.70S WCI   9

$$

LMZ046-743>745-090900-
SOUTHERN LAKE MICHIGAN

STATION/POSITION TIME  TEMP    WIND        PRES    WAVE
                       AIR SEA DIR/SP/G            HT
                 (UTC) (F)     (DEG/KT/KT) (MB)    (FT)
BURNS HARBOR     0700   25     290/ 14/ 19 1006.8S
MICHIGAN CITY    0700   25     270/ 21/ 23   N/A

$$

INZ004-005-014>016-021>024-090900-
NORTH CENTRAL INDIANA

CITY           SKY/WX    TMP DP  RH WIND       PRES   REMARKS
GOSHEN         LGT SNOW  27  23  85 W17       29.63F FOG     WCI  14
LOGANSPORT +   CLOUDY    25  18  74 W12G17    29.70F WCI  14
PERU/GRISSOM   FLURRIES  25  21  86 W12       29.66F WCI  14
ROCHESTER +    LGT SNOW  28  21  74 W7        29.68S WCI  21
SOUTH BEND     FLURRIES  25  23  92 W14       29.65S WCI  13
WARSAW +       FLURRIES  27  23  86 W13       29.65S WCI  16

$$

INZ006>009-017-018-025>027-090900-
NORTHEAST INDIANA

CITY           SKY/WX    TMP DP  RH WIND       PRES   REMARKS
ANGOLA *+      CLOUDY    27  25  93 W10       29.58F WCI  17
AUBURN +       MIX PCPN  28  25  86 W10G16    29.62F WCI  19
FORT WAYNE     FLURRIES  28  22  78 W16       29.64F WCI  16
HUNTINGTON +   LGT SNOW  24  19  81 W13G20    29.65F WCI  12

$$

INZ028-029-035-036-043>045-051>053-090900-
WEST CENTRAL INDIANA

CITY           SKY/WX    TMP DP  RH WIND       PRES   REMARKS
GREENCASTLE +  FLURRIES  19  12  73 W9        29.75S WCI   9
LAFAYETTE      CLOUDY    21  16  81 W14       29.74S WCI   8
TERRE HAUTE    CLOUDY    20  15  81 W8        29.79F WCI  10

$$

INZ030>032-037>040-046>048-054>057-064-065-090900-
CENTRAL INDIANA

CITY           SKY/WX    TMP DP  RH WIND       PRES   REMARKS
FRANKFORT +    CLOUDY    23  15  72 W20       29.73S WCI   8
GREENWOOD *+   CLOUDY    23  19  86 W15G21    29.73S WCI  10
INDIANAPOLIS   FLURRIES  21  17  84 W14       29.72S WCI   8
-EAGLE CREEK   CLOUDY    21  18  88 W14       29.72S WCI   8
KOKOMO *+      CLOUDY    25  19  80 W16       29.68F WCI  12
MARION +       CLOUDY    24  16  73 W16       29.68F WCI  10
MT COMFORT *+  CLOUDY    21  19  93 NW14      29.71F WCI   8
SHELBYVILLE    LGT SNOW  23  17  78 W14       29.72S WCI  11
ZIONSVILLE +   LGT SNOW  21  19  89 W13G18    29.71S WCI   9

$$

INZ033-034-041-042-049-050-058-059-090900-
EAST CENTRAL INDIANA

CITY           SKY/WX    TMP DP  RH WIND       PRES   REMARKS
MUNCIE         CLOUDY    24  19  81 W12       29.67F WCI  13

$$

INZ060-061-067>069-081>083-085>088-090900-
SOUTHWEST INDIANA

CITY           SKY/WX    TMP DP  RH WIND       PRES   REMARKS
EVANSVILLE     FLURRIES  24  14  65 NW9G18    29.86F WCI  14
HUNTINGBURG *+ CLOUDY    21  16  79 W10       29.83F WCI  10
WASHINGTON +   CLOUDY    20  14  75 W8        29.83S WCI  11

$$

INZ062-063-066-070>080-084-089>092-090900-
SOUTH CENTRAL AND SOUTHEAST INDIANA

CITY           SKY/WX    TMP DP  RH WIND       PRES   REMARKS
BEDFORD +      FLURRIES  21  18  86 W8        29.79R WCI  12
BLOOMINGTON    FLURRIES  20  15  81 W13       29.76S WCI   7
MADISON *+     CLOUDY    21  14  73 W8        29.77F WCI  12
NORTH VERNON + FLURRIES  21  18  86 W9        29.75F WCI  11
SEYMOUR +      FLURRIES  23  16  74 W14       29.77F WCI  11

$$




USA.gov is the U.S. government's official web portal to all federal, state and local government web resources and services.